Change the Weather History Date:

Friday, March 28, 2014

  Actual Average Record
Temperature  
Mean Temperature 41 °F 42 °F  
Max Temperature 47 °F 53 °F 79 °F (1910)
Min Temperature 35 °F 32 °F 8 °F (1970)
Degree Days  
Heating Degree Days 24 23  
Month to date heating degree days 1029 797  
Since 1 July heating degree days 6921 5799  
Cooling Degree Days 0 0  
Month to date cooling degree days 0 0  
Year to date cooling degree days 0 0  
Moisture  
Dew Point 33 °F    
Average Humidity 80    
Maximum Humidity 96    
Minimum Humidity 64    
Precipitation  
Precipitation 0.02 in 0.09 in 1.60 in (1931)
Month to date precipitation 1.03 2.04  
Year to date precipitation 4.77 4.82  
Snow  
Snow 0.00 in 0.10 in 3.90 in (1975)
Month to date snowfall 9.1 4.5  
Since 1 July snowfall 56.6 35.5  
Snow Depth 0.00 in    
Sea Level Pressure  
Sea Level Pressure 29.90 in    
Wind  
Wind Speed 8 mph (NW)    
Max Wind Speed 29 mph    
Max Gust Speed 34 mph    
Visibility 8 miles    
Events Rain    
T = Trace of Precipitation, MM = Missing Value Source: NWS Daily Summary

Daily Weather History Graph

Daily Weather History Graph

Search for Another Location

Airport or City:

Trip Planner

Search our weather history database for the weather conditions in past years. The results will help you decide how hot, cold, wet, or windy it might be!

Date:

Astronomy

Mar. 28, 2014 Rise Set
Actual Time 6:45 AM CDT 7:17 PM CDT
Civil Twilight 6:17 AM CDT 7:45 PM CDT
Nautical Twilight 5:44 AM CDT 8:19 PM CDT
Astronomical Twilight 5:10 AM CDT 8:53 PM CDT
Moon 5:19 AM CDT (3/28) 5:12 PM CDT (3/28)
Length of Visible Light 13h 28m
Length of Day
12h 31m
Waning Crescent, 6% of the Moon is Illuminated
Mar 28
Waning Crescent
Mar 30
New
Apr 7
First Quarter
Apr 15
Full
Apr 22
Last Quarter

Hourly Weather History & Observations

Time (CDT) Temp. Windchill Dew Point Humidity Pressure Visibility Wind Dir Wind Speed Gust Speed Precip Events Conditions
12:54 AM 48.0 °F - 43.0 °F 83% 29.44 in 10.0 mi SW 21.9 mph 31.1 mph N/A   Overcast
1:38 AM 44.1 °F 37.1 °F 41.0 °F 89% 29.46 in 5.0 mi WSW 15.0 mph 29.9 mph 0.00 in Rain Light Rain
1:54 AM 44.1 °F 38.1 °F 41.0 °F 89% 29.48 in 4.0 mi SW 11.5 mph - 0.00 in Rain Light Rain
2:54 AM 43.0 °F 37.2 °F 41.0 °F 93% 29.51 in 2.0 mi West 10.4 mph - 0.00 in Rain Light Rain
3:18 AM 43.0 °F 37.2 °F 41.0 °F 93% 29.52 in 3.0 mi West 10.4 mph - 0.00 in Rain Light Rain
3:54 AM 42.1 °F 32.3 °F 39.0 °F 89% 29.58 in 3.0 mi NNW 24.2 mph 31.1 mph 0.00 in Rain Light Rain
4:01 AM 41.0 °F 32.2 °F 37.9 °F 89% 29.58 in 4.0 mi NNW 18.4 mph 31.1 mph 0.00 in Rain Light Rain
4:54 AM 37.9 °F 28.9 °F 34.0 °F 86% 29.67 in 8.0 mi NNW 16.1 mph 28.8 mph 0.01 in Rain Light Rain
5:38 AM 37.0 °F 28.1 °F 34.0 °F 89% 29.71 in 7.0 mi NW 15.0 mph - 0.00 in Rain Light Rain
5:54 AM 36.0 °F 27.5 °F 34.0 °F 93% 29.75 in 7.0 mi NW 12.7 mph 26.5 mph 0.01 in Rain Light Rain
6:25 AM 37.0 °F 28.1 °F 34.0 °F 89% 29.78 in 8.0 mi NNW 15.0 mph - 0.00 in   Overcast
6:54 AM 37.0 °F 28.5 °F 33.1 °F 86% 29.82 in 10.0 mi NNW 13.8 mph - 0.00 in   Overcast
7:54 AM 37.0 °F 28.5 °F 33.1 °F 86% 29.88 in 10.0 mi NW 13.8 mph - N/A   Overcast
8:54 AM 37.0 °F 28.9 °F 32.0 °F 82% 29.95 in 10.0 mi NNW 12.7 mph - N/A   Overcast
9:54 AM 36.0 °F 27.5 °F 30.0 °F 79% 29.99 in 10.0 mi NNW 12.7 mph - N/A   Overcast
10:54 AM 36.0 °F 28.5 °F 30.0 °F 79% 30.02 in 10.0 mi North 10.4 mph - N/A   Overcast
11:54 AM 37.9 °F 31.5 °F 30.9 °F 76% 30.04 in 10.0 mi NNW 9.2 mph - N/A   Overcast
12:54 PM 39.0 °F 34.8 °F 30.0 °F 70% 30.06 in 10.0 mi NW 5.8 mph - N/A   Overcast
1:54 PM 39.0 °F 36.8 °F 28.9 °F 67% 30.11 in 10.0 mi West 3.5 mph - N/A   Overcast
2:54 PM 37.9 °F 34.4 °F 28.9 °F 70% 30.14 in 10.0 mi West 4.6 mph - N/A   Overcast
3:54 PM 39.0 °F - 30.0 °F 70% 30.14 in 10.0 mi Calm Calm - N/A   Overcast
4:54 PM 39.9 °F - 30.0 °F 68% 30.15 in 10.0 mi Calm Calm - N/A   Overcast
5:54 PM 39.9 °F - 28.9 °F 65% 30.15 in 10.0 mi Calm Calm - N/A   Overcast
6:54 PM 37.9 °F - 30.0 °F 73% 30.19 in 10.0 mi Calm Calm - N/A   Overcast
7:54 PM 37.9 °F 34.4 °F 30.9 °F 76% 30.19 in 9.0 mi ESE 4.6 mph - N/A   Overcast
8:54 PM 37.9 °F 33.5 °F 30.0 °F 73% 30.18 in 10.0 mi ENE 5.8 mph - N/A   Overcast
9:54 PM 37.0 °F 31.0 °F 30.0 °F 76% 30.17 in 9.0 mi NE 8.1 mph - N/A   Overcast
10:54 PM 37.0 °F 33.3 °F 28.9 °F 73% 30.19 in 9.0 mi East 4.6 mph - N/A   Overcast
11:54 PM 35.1 °F 30.1 °F 30.0 °F 82% 30.22 in 9.0 mi ESE 5.8 mph - N/A   Overcast